Location: Unspecified
(47.5840°N, 122.3000°W)
Time: 21:54:21
(UTC+00:00)

PAYLOAD A - Pass Details

Date: 04 August 2024
Orbit: 690 x 831 km, 98.5° (Epoch: 16 September)

Event Time Altitude Azimuth Distance (km) Brightness Sun altitude
Rises 12:08:40 0° 13° (NNE) 3,293 8.1 -7.0°
Reaches altitude 10° 12:11:02 10° 13° (NNE) 2,339 7.3 -6.7°
Maximum altitude 12:16:11 83° 287° (WNW) 766 4.0 -6.0°
Drops below altitude 10° 12:21:06 10° 199° (SSW) 2,230 5.9 -5.3°
Sets 12:23:19 0° 199° (SSW) 3,128 6.7 -5.0°
